SCOUT G-1 DEB, 19078

Orbit data source: Space-Track

SCOUT G-1 DEB, 19078 is space debris in LEO originally from a launch on Tue, 26 Apr 1988 UTC launched from the Air Force Western Test Range (AFWTR). Debris objects in space refer to the collection of defunct objects orbiting the Earth. Examples of debris include non-operational satellites, rocket bodies, and fragments generated from explosions, collisions, or faulty payload assembly.

Loading next visibility...
Identifier
19078, 1988-033E
Orbit
LEO
Country
Flag of USUS
Related business
Manufacturer
Unknown
Mission
Spacecraft
Bus & Motor
Unknown
Mass
Unknown
Launch date (UTC)
1988-04-26 (38 years ago)
Launch vehicle
Unknown
Launch site
Air Force Western Test Range (AFWTR)
Object type
Payload
Rocket body
Debris
Shape & HBR
Unknown shape, 0.1 m
Radar Cross Section
Medium (>0.1 m² and <1 m²)

Expand to show TLE details & history
Last TLE update: 2 days ago

TLE from 2 days ago
0 SCOUT G-1 DEB
1 19078U 88033E   26171.45688535  .00000088  00000-0  13801-3 0  9990
2 19078  90.5525 357.3562 0158888 266.4556 119.6362 13.40895960864197
Epoch: 2026-06-20T10:57Z
TLE epoch observation values (Epoch: 2026-06-20T10:57:54.894Z)
Latitude
27.69438°
Longitude
-76.0823°
Altitude
1,169.609 km
Speed
7.242 km/s
True Right ascension
23h 48m 16s
True Declination
27° 33' 39"
Sunlit
Object was in daylight at epoch
Visualization orbit readout
Latitude
Unknown
Longitude
Unknown
Altitude
Unknown
Speed
Unknown
Apparent Right ascension
Unknown
Apparent Declination
Unknown
Sunlit
N/A
Visualization observer readout
Local Sidereal Time
23:09:07
Azimuth
Unknown
Elevation
Unknown
Doppler factor
Unknown
Orbital elements
Apogee altitude
1,221.873 km
Perigee altitude
984.14 km
Semi-major axis
7,481.143 km
Eccentricity
0.01589
Inclination
90.5525°
RAAN
357.3562°
Arg. of periapsis
266.4556°
True anomaly
121.20315°
Mean anomaly
119.6362°
Eccentric anomaly
120.42123°
Mean motion
3.35422 °/min
Orbital period
107.33 mins
BSTAR
0.00013801
Loading maneuver chart data...
Computing Atmospheric mass density...
Loading historical data...
Loading historical data...
Loading historical data...
Loading historical data...
Loading historical data...
Loading historical data...
Loading historical data...

Documentation

Showing up to 5 results
|